Location: St. Louis
(38.6270°N, 90.1994°W)
Time: 00:21:56
(UTC-06:00)

Courier 1B Rocket - Pass Details

Date: 02 December 2021
Orbit: 920 x 1202 km, 28.2° (Epoch: 16 January)

Event Time Altitude Azimuth Distance (km) Brightness Sun altitude
Rises 21:39:21 0° 213° (SSW) 3,672 - -57.5°
Reaches altitude 10° 21:43:14 10° 192° (SSW) 2,677 - -58.2°
Maximum altitude 21:46:47 15° 158° (SSE) 2,273 - -58.8°
Drops below altitude 10° 21:50:17 10° 124° (ESE) 2,619 - -59.5°
Sets 21:54:00 0° 102° (ESE) 3,549 - -60.1°
